Find Starlink 35149

NORAD ID: 65512 Int'l Des: 2025-198 Owner: SPXS Country: US Constellation: starlink operational
LEOCIRCULAR

当前视图

正在加载3D地球...

关于 Starlink 35149

正在加载描述...

即将过境

Passes for default location (London). Set your location on the main map for personalized predictions.

高度历史

Loading altitude history...

两行轨道根数

1 65512U 25198W 26149.68574231 .00043464 00000-0 12901-2 0 9998
2 65512 53.1604 253.8754 0001776 84.9117 275.2089 15.34399631 41030
Epoch: May 29, 2026 • Age: 22 hours

当前状态

高度 469.1 km
速度 7.63 km/s
星下点 -21.75°S, 130.88°E
发射日期 Sep 5, 2025
运行时间 0.7 years
类型 internet

技术详情

分类 Payload
质量 575.00 kg
干质量 530.00 kg
总质量 575.00 kg
长度 0.30 m
直径 4.10 m
跨度 29.00 m
形状 Box + pan
制造商 SPXS
平台类型 Starlink V2MO
阶段状态 In Orbit
所有者/国家 SPXS/US

Most Searched